#timestamp,LO_Frequency,Hit,StdDev 
1458885615.1,286047007.1,N
1458885635.9,286047005.2,N
1458885655.7,286047004.0,N
1458885675.5,286046997.0,N
1458885695.4,286046991.8,N
1458885715.2,286046990.9,N
1458885735.0,286046988.5,N
1458885735.9,286046988.5,N
1458885755.8,286046989.9,N
1458885775.6,286046985.7,N
1458885795.4,286046986.2,N
1458885815.3,286046986.3,N
1458885835.1,286046984.6,N
1458885836.0,286046984.6,N
1458885855.8,286046983.2,N
1458885875.6,286046979.4,N
1458885895.5,286046978.5,N
1458885915.3,286046978.8,N
1458885935.1,286046978.4,N
1458885955.9,286046978.8,N
1458885975.7,286046976.8,N
1458885995.5,286046974.2,N
1458886015.4,286046975.2,N
1458886035.2,286046973.1,N
1458886055.0,286046971.4,N
1458886055.9,286046971.4,N
1458886075.8,286046971.4,N
1458886095.6,286046971.7,N
1458886115.4,286046971.4,N
1458886135.3,286046973.0,N
1458886155.1,286046971.4,N
1458886156.0,286046971.4,Y
1458886175.8,286046989.8,P
1458886195.7,286046990.5,N
1458886215.5,286046989.4,N
1458886235.3,286046987.7,Y
1458886255.2,286046998.6,P
1458886275.9,286046998.6,N
1458886295.7,286047000.5,N
1458886315.6,286046996.9,N
1458886335.4,286046996.0,N
1458886355.2,286046994.8,N
1458886375.1,286046992.2,N
1458886376.0,286046992.2,N
1458886395.8,286046990.0,N
1458886415.6,286046985.5,Y
1458886435.5,286046991.2,P
1458886455.3,286046989.3,P
1458886475.1,286046988.4,P
1458886495.9,286046986.5,Y
1458886515.7,286046994.6,P
1458886535.5,286046999.6,N
1458886555.4,286046993.4,N
1458886575.2,286046990.1,Y
1458886595.0,286046995.2,P
1458886595.9,286046995.2,P
1458886615.8,286046995.7,P
1458886635.6,286046994.6,Y
1458886655.4,286046997.0,P
1458886675.3,286046997.0,P
1458886695.1,286046999.5,N
1458886696.0,286046999.5,N
1458886715.8,286046996.8,N
1458886735.7,286046996.7,N
1458886755.5,286046998.2,N
1458886775.3,286046998.9,N
1458886795.2,286047000.7,N
1458886815.9,286046996.9,N
1458886835.7,286046996.7,N
1458886855.6,286046994.9,Y
1458886875.4,286046998.7,P
1458886895.2,286047000.0,N
1458886915.1,286046999.8,N
1458886916.0,286046999.8,N
1458886935.8,286047001.6,N
1458886955.6,286047005.6,Y
1458886975.5,286047004.1,P
1458886995.3,286047008.3,P
1458887015.1,286047008.2,N
1458887035.9,286047006.6,N
1458887055.7,286047008.8,N
1458887075.5,286047006.9,N
1458887095.4,286047010.9,Y
1458887115.2,286047008.6,P
1458887135.0,286047011.9,P
1458887135.9,286047011.9,P
1458887155.8,286047011.5,Y
1458887175.6,286047003.8,P
1458887195.4,286047003.6,N
1458887215.3,286047001.4,N
1458887235.1,286047005.0,N
1458887236.0,286047005.0,N
1458887255.8,286047004.6,N
1458887275.7,286047006.2,N
1458887295.5,286047008.7,Y
1458887315.3,286047001.7,P
1458887335.2,286047001.3,N
1458887355.0,286047001.3,N
1458887355.9,286047001.3,N
1458887375.8,286047002.9,N
1458887395.6,286047007.6,Y
1458887415.4,286047003.7,P
1458887435.3,286047001.4,N
1458887455.1,286047004.1,P
1458887475.8,286047002.4,N
1458887495.7,286047002.8,N
1458887515.5,286047003.9,Y
1458887535.3,286046998.2,P
1458887555.2,286046998.2,N
1458887575.9,286046998.1,N
1458887595.7,286047000.8,N
1458887615.6,286046998.9,N
1458887635.4,286046999.9,N
1458887655.2,286047000.1,N
1458887675.1,286046996.9,N
1458887676.0,286046996.9,N
1458887695.8,286046999.4,N
1458887715.6,286046999.2,N
1458887735.5,286046995.6,N
1458887755.3,286046995.6,N
1458887775.1,286046992.3,Y
1458887795.9,286046995.4,P
1458887815.7,286046996.5,N
1458887835.5,286046997.6,N
1458887855.3,286046999.1,N
1458887875.2,286046999.8,N
1458887895.0,286047000.1,N
1458887895.9,286047000.1,N
1458887915.7,286047000.4,N
1458887935.6,286046998.5,N
1458887955.4,286046999.4,N
1458887975.2,286046998.2,N
1458887995.1,286046998.6,N
1458887996.0,286046998.6,N
1458888015.8,286046999.5,N
1458888035.6,286046995.7,Y
1458888055.5,286046993.7,P
1458888075.3,286046992.8,N
1458888095.1,286046994.2,N
1458888115.9,286046990.5,Y
1458888135.7,286046991.7,P
1458888155.5,286046990.0,P
1458888175.4,286046987.0,P
1458888195.2,286046987.4,Y
1458888215.0,286046994.1,P
1458888215.9,286046994.1,P
1458888235.8,286046994.1,P
1458888255.6,286046990.1,Y
1458888275.4,286046996.5,P
1458888295.3,286046994.9,P
1458888315.1,286046995.3,P
1458888335.8,286046993.3,Y
1458888355.7,286046998.3,P
1458888375.5,286046997.5,N
1458888395.3,286046997.1,N
1458888415.2,286046997.7,N
1458888435.9,286046996.3,Y
1458888455.7,286046997.3,P
1458888475.6,286046998.1,P
1458888495.4,286046998.2,P
1458888515.2,286046998.5,Y
1458888535.1,286046998.5,P
1458888536.0,286046998.5,P
1458888555.8,286047003.8,P
1458888575.6,286047007.5,Y
1458888595.5,286047005.3,P
1458888615.3,286047005.2,N
1458888635.1,286047007.0,N
1458888655.9,286047008.6,Y
1458888675.7,286047003.9,P
1458888695.5,286047003.4,P
1458888715.4,286047004.2,P
1458888735.2,286047005.5,Y
1458888755.0,286047000.2,P
1458888755.9,286047000.2,N
1458888775.8,286047001.6,N
1458888795.6,286047003.7,N
1458888815.4,286046998.6,N
1458888835.3,286046996.9,N
1458888855.1,286046997.9,N
1458888875.8,286046996.5,N
1458888895.7,286047000.3,N
1458888915.5,286047001.8,N
1458888935.3,286047003.3,N
1458888955.2,286047003.1,N
1458888975.9,286047003.7,N
1458888995.7,286047001.7,N
1458889015.6,286047002.1,N
1458889035.4,286047003.5,N
1458889055.2,286047003.8,N
1458889075.0,286047006.0,N
1458889075.9,286047006.0,N
1458889095.8,286047004.2,N
1458889115.6,286047003.7,N
1458889135.4,286047003.2,N
1458889155.3,286047003.1,N
1458889175.1,286047007.3,N
1458889195.8,286047007.1,N
